EZY8719 EGKK-EKCH

Flight info

Callsign EZY8719
Flight time 1h 14m
Altitude 37000
Route FRANE M604 PAAVO Q295 SOMVA DCT MAVAS DCT DOSUR DCT TALSA P729 TUDLO
Aircraft A20N/M-SDE2E3FGHIRWXY/LB1

Departure

Time 2026-05-04 19:10
Airport London Gatwick Airport (EGKK)

Arrival

Time 2026-05-04 20:25
Airport Copenhagen Kastrup Airport (EKCH)
Time Latitude Longitude Altitude Speed Heading
2026-05-04 18:32 51.15835 -0.17635 208 ft 0 kts 347°
2026-05-04 18:52 51.15825 -0.17631 212 ft 3 kts 347°
2026-05-04 18:52 51.15807 -0.17625 212 ft 3 kts 347°
2026-05-04 18:52 51.15789 -0.17618 213 ft 3 kts 347°
2026-05-04 18:53 51.15771 -0.17608 216 ft 3 kts 316°
2026-05-04 18:53 51.15762 -0.17583 213 ft 3 kts 276°
2026-05-04 18:53 51.15761 -0.17569 214 ft 2 kts 276°
2026-05-04 18:53 51.15760 -0.17558 215 ft 0 kts 260°
2026-05-04 18:57 51.15760 -0.17560 215 ft 0 kts 260°
2026-05-04 18:57 51.15757 -0.17578 214 ft 7 kts 255°
2026-05-04 18:57 51.15734 -0.17715 216 ft 16 kts 256°
2026-05-04 18:57 51.15710 -0.17887 208 ft 16 kts 257°
2026-05-04 18:58 51.15686 -0.18056 214 ft 15 kts 257°
2026-05-04 18:58 51.15663 -0.18220 216 ft 15 kts 257°
2026-05-04 18:58 51.15627 -0.18342 214 ft 11 kts 209°
2026-05-04 18:58 51.15552 -0.18337 213 ft 11 kts 167°
2026-05-04 18:59 51.15478 -0.18310 210 ft 11 kts 167°
2026-05-04 18:59 51.15420 -0.18290 212 ft 8 kts 167°
2026-05-04 18:59 51.15364 -0.18270 212 ft 8 kts 167°
2026-05-04 18:59 51.15310 -0.18250 218 ft 8 kts 167°
2026-05-04 19:00 51.15256 -0.18231 208 ft 8 kts 167°
2026-05-04 19:00 51.15192 -0.18278 215 ft 15 kts 250°
2026-05-04 19:00 51.15171 -0.18438 216 ft 15 kts 257°
2026-05-04 19:00 51.15149 -0.18594 208 ft 14 kts 257°
2026-05-04 19:01 51.15128 -0.18747 217 ft 14 kts 258°
2026-05-04 19:01 51.15108 -0.18899 211 ft 14 kts 257°
2026-05-04 19:01 51.15088 -0.19043 216 ft 13 kts 257°
2026-05-04 19:01 51.15068 -0.19182 211 ft 13 kts 257°
2026-05-04 19:02 51.15050 -0.19317 211 ft 12 kts 258°
2026-05-04 19:02 51.15032 -0.19451 208 ft 13 kts 258°
2026-05-04 19:02 51.15012 -0.19597 213 ft 15 kts 257°
2026-05-04 19:02 51.14987 -0.19777 213 ft 18 kts 258°
2026-05-04 19:03 51.14961 -0.19970 208 ft 18 kts 257°
2026-05-04 19:03 51.14934 -0.20163 210 ft 18 kts 258°
2026-05-04 19:03 51.14913 -0.20326 218 ft 13 kts 258°
2026-05-04 19:03 51.14899 -0.20423 217 ft 5 kts 256°
2026-05-04 19:04 51.14890 -0.20480 210 ft 5 kts 256°
2026-05-04 19:04 51.14872 -0.20607 216 ft 15 kts 257°
2026-05-04 19:04 51.14849 -0.20770 208 ft 15 kts 257°
2026-05-04 19:04 51.14827 -0.20929 219 ft 14 kts 258°
2026-05-04 19:05 51.14809 -0.21060 213 ft 11 kts 257°
2026-05-04 19:05 51.14788 -0.21173 214 ft 11 kts 250°
2026-05-04 19:05 51.14766 -0.21305 214 ft 14 kts 256°
2026-05-04 19:05 51.14735 -0.21400 208 ft 5 kts 207°
2026-05-04 19:06 51.14733 -0.21401 208 ft 0 kts 199°
2026-05-04 19:06 51.14703 -0.21399 208 ft 8 kts 160°
2026-05-04 19:06 51.14655 -0.21352 216 ft 8 kts 142°
2026-05-04 19:07 51.14634 -0.21336 214 ft 1 kts 164°
2026-05-04 19:07 51.14624 -0.21332 213 ft 2 kts 164°
2026-05-04 19:07 51.14621 -0.21331 212 ft 0 kts 164°
2026-05-04 19:09 51.14587 -0.21314 212 ft 12 kts 161°
2026-05-04 19:09 51.14523 -0.21219 211 ft 13 kts 112°
2026-05-04 19:09 51.14524 -0.21149 209 ft 0 kts 76°
2026-05-04 19:10 51.14526 -0.21134 218 ft 9 kts 76°
2026-05-04 19:10 51.14593 -0.20661 216 ft 83 kts 78°
2026-05-04 19:10 51.14778 -0.19331 270 ft 154 kts 77°
2026-05-04 19:10 51.14981 -0.17624 1087 ft 160 kts 80°
2026-05-04 19:11 51.15152 -0.15830 2010 ft 167 kts 79°
2026-05-04 19:11 51.15375 -0.14043 2719 ft 160 kts 76°
2026-05-04 19:11 51.15650 -0.12244 3305 ft 174 kts 73°
2026-05-04 19:11 51.15843 -0.11131 3644 ft 183 kts 73°
2026-05-04 19:12 51.16106 -0.09443 4108 ft 196 kts 75°
2026-05-04 19:12 51.16748 -0.04924 5056 ft 224 kts 78°
2026-05-04 19:12 51.16894 -0.02335 5106 ft 246 kts 88°
2026-05-04 19:13 51.16871 0.00514 4986 ft 264 kts 91°
2026-05-04 19:13 51.16805 0.03466 4990 ft 267 kts 91°
2026-05-04 19:13 51.16738 0.06430 4995 ft 267 kts 91°
2026-05-04 19:13 51.16675 0.09385 5132 ft 267 kts 91°
2026-05-04 19:14 51.16616 0.12342 5618 ft 268 kts 91°
2026-05-04 19:14 51.16571 0.15323 6239 ft 270 kts 90°
2026-05-04 19:14 51.16565 0.18321 6855 ft 273 kts 90°
2026-05-04 19:14 51.16569 0.21365 7472 ft 276 kts 90°
2026-05-04 19:15 51.16575 0.24432 8102 ft 278 kts 90°
2026-05-04 19:15 51.16581 0.27536 8746 ft 281 kts 90°
2026-05-04 19:15 51.16586 0.30661 9401 ft 284 kts 90°
2026-05-04 19:15 51.16590 0.33785 10042 ft 287 kts 90°
2026-05-04 19:16 51.16874 0.36926 10639 ft 289 kts 69°
2026-05-04 19:16 51.17966 0.39600 11264 ft 290 kts 43°
2026-05-04 19:16 51.19658 0.41345 11893 ft 292 kts 25°
2026-05-04 19:16 51.21545 0.42596 12527 ft 296 kts 21°
2026-05-04 19:17 51.23483 0.43782 12914 ft 298 kts 21°
2026-05-04 19:17 51.25427 0.44960 12995 ft 300 kts 21°
2026-05-04 19:17 51.27378 0.46144 12993 ft 301 kts 21°
2026-05-04 19:17 51.29337 0.47334 13000 ft 301 kts 21°
2026-05-04 19:18 51.31299 0.48529 13303 ft 301 kts 21°
2026-05-04 19:18 51.33260 0.49725 13921 ft 302 kts 21°
2026-05-04 19:18 51.35233 0.50927 14516 ft 304 kts 21°
2026-05-04 19:18 51.37219 0.52137 15127 ft 308 kts 21°
2026-05-04 19:19 51.39234 0.53368 15766 ft 312 kts 21°
2026-05-04 19:19 51.41282 0.54632 16407 ft 319 kts 21°
2026-05-04 19:19 51.43381 0.55902 17062 ft 326 kts 20°
2026-05-04 19:19 51.45498 0.57168 17717 ft 332 kts 20°
2026-05-04 19:20 51.47688 0.58474 18391 ft 338 kts 20°
2026-05-04 19:20 51.49907 0.59799 18979 ft 343 kts 20°
2026-05-04 19:20 51.52155 0.61148 19586 ft 348 kts 20°
2026-05-04 19:20 51.54448 0.62528 20216 ft 353 kts 20°
2026-05-04 19:21 51.56755 0.63920 20847 ft 357 kts 20°
2026-05-04 19:21 51.59086 0.65353 21489 ft 360 kts 24°
2026-05-04 19:21 51.61292 0.67309 22020 ft 366 kts 37°
2026-05-04 19:21 51.63044 0.69831 22257 ft 377 kts 47°
2026-05-04 19:22 51.64809 0.73072 22499 ft 390 kts 52°
2026-05-04 19:22 51.66475 0.76612 22756 ft 402 kts 55°
2026-05-04 19:22 51.68105 0.80344 23088 ft 411 kts 56°
2026-05-04 19:22 51.69738 0.84176 23548 ft 417 kts 56°
2026-05-04 19:23 51.71394 0.88058 23971 ft 421 kts 56°
2026-05-04 19:23 51.73075 0.91957 24414 ft 425 kts 56°
2026-05-04 19:23 51.74759 0.95822 24838 ft 428 kts 56°
2026-05-04 19:23 51.76488 0.99761 25268 ft 431 kts 55°
2026-05-04 19:24 51.78226 1.03704 25688 ft 434 kts 55°
2026-05-04 19:24 51.79987 1.07693 26103 ft 437 kts 55°
2026-05-04 19:24 51.81763 1.11720 26499 ft 440 kts 55°
2026-05-04 19:24 51.83539 1.15755 26909 ft 442 kts 55°
2026-05-04 19:25 51.85330 1.19830 27300 ft 445 kts 55°
2026-05-04 19:25 51.87126 1.23928 27675 ft 448 kts 55°
2026-05-04 19:25 51.88929 1.28049 28059 ft 450 kts 55°
2026-05-04 19:25 51.90745 1.32206 28429 ft 453 kts 55°
2026-05-04 19:26 51.92566 1.36384 28785 ft 455 kts 55°
2026-05-04 19:26 51.94374 1.40538 29138 ft 457 kts 56°
2026-05-04 19:26 51.96212 1.44767 29478 ft 460 kts 56°
2026-05-04 19:26 51.98063 1.49033 29816 ft 462 kts 56°
2026-05-04 19:27 51.99916 1.53311 30132 ft 465 kts 56°
2026-05-04 19:27 52.01780 1.57623 30414 ft 467 kts 56°
2026-05-04 19:27 52.03643 1.61937 30778 ft 466 kts 56°
2026-05-04 19:27 52.05485 1.66210 31158 ft 465 kts 56°
2026-05-04 19:28 52.07338 1.70516 31550 ft 464 kts 56°
2026-05-04 19:28 52.09184 1.74815 31924 ft 463 kts 56°
2026-05-04 19:28 52.11029 1.79117 32276 ft 463 kts 56°
2026-05-04 19:28 52.12872 1.83422 32612 ft 462 kts 56°
2026-05-04 19:29 52.14708 1.87718 32964 ft 462 kts 56°
2026-05-04 19:29 52.24008 2.09597 34452 ft 460 kts 56°
2026-05-04 19:29 52.31221 2.26691 35392 ft 459 kts 56°
2026-05-04 19:29 52.38459 2.43955 36250 ft 459 kts 56°
2026-05-04 19:30 52.45676 2.61291 37004 ft 460 kts 56°
2026-05-04 19:30 52.52986 2.78970 37044 ft 476 kts 56°
2026-05-04 19:30 52.60424 2.97083 37037 ft 489 kts 56°
2026-05-04 19:31 52.76807 3.37438 37029 ft 483 kts 56°
2026-05-04 19:31 52.91661 3.74604 37035 ft 484 kts 57°
2026-05-04 19:32 53.03256 4.03996 37036 ft 485 kts 57°
2026-05-04 19:32 53.06951 4.13434 37039 ft 486 kts 57°
2026-05-04 19:33 53.11222 4.24387 37036 ft 486 kts 57°
2026-05-04 19:33 53.14278 4.32254 37034 ft 486 kts 57°
2026-05-04 19:34 53.17945 4.41726 37035 ft 486 kts 57°
2026-05-04 19:34 53.21573 4.51253 37034 ft 486 kts 58°
2026-05-04 19:35 53.25184 4.60799 37040 ft 486 kts 58°
2026-05-04 19:35 53.28791 4.70364 37039 ft 486 kts 58°
2026-05-04 19:36 53.32389 4.79942 37039 ft 487 kts 58°
2026-05-04 19:36 53.35961 4.89486 37037 ft 487 kts 58°
2026-05-04 19:37 53.39555 4.99123 37040 ft 487 kts 58°
2026-05-04 19:37 53.43135 5.08762 37038 ft 487 kts 58°
2026-05-04 19:38 53.46713 5.18434 37039 ft 487 kts 58°
2026-05-04 19:38 53.50283 5.28119 37039 ft 487 kts 58°
2026-05-04 19:39 53.53843 5.37816 37036 ft 488 kts 58°
2026-05-04 19:39 53.57376 5.47477 37036 ft 488 kts 58°
2026-05-04 19:40 53.60929 5.57229 37033 ft 488 kts 58°
2026-05-04 19:40 53.64475 5.67003 37031 ft 488 kts 58°
2026-05-04 19:41 53.68012 5.76788 37031 ft 489 kts 58°
2026-05-04 19:41 53.71544 5.86597 37032 ft 489 kts 58°
2026-05-04 19:42 53.75066 5.96419 37030 ft 489 kts 58°
2026-05-04 19:42 53.78591 6.06287 37029 ft 489 kts 58°
2026-05-04 19:43 53.82067 6.16058 37031 ft 489 kts 58°
2026-05-04 19:43 53.85568 6.25938 37034 ft 489 kts 58°
2026-05-04 19:44 53.89063 6.35839 37032 ft 489 kts 58°
2026-05-04 19:44 53.92551 6.45763 37032 ft 490 kts 59°
2026-05-04 19:45 53.96032 6.55703 37034 ft 490 kts 59°
2026-05-04 19:45 53.99506 6.65665 37033 ft 490 kts 59°
2026-05-04 19:46 54.02970 6.75641 37036 ft 490 kts 59°
2026-05-04 19:46 54.06432 6.85649 37033 ft 490 kts 59°
2026-05-04 19:47 54.09880 6.95657 37033 ft 490 kts 59°
2026-05-04 19:47 54.13302 7.05632 37029 ft 490 kts 59°
2026-05-04 19:48 54.16738 7.15687 37032 ft 490 kts 59°
2026-05-04 19:48 54.20167 7.25762 37031 ft 490 kts 59°
2026-05-04 19:49 54.23522 7.35660 37032 ft 490 kts 59°
2026-05-04 19:49 54.26936 7.45776 37031 ft 491 kts 59°
2026-05-04 19:50 54.30342 7.55910 37029 ft 491 kts 59°
2026-05-04 19:50 54.33722 7.66006 37026 ft 491 kts 59°
2026-05-04 19:51 54.37116 7.76185 37029 ft 491 kts 59°
2026-05-04 19:51 54.40500 7.86379 37025 ft 491 kts 59°
2026-05-04 19:52 54.43856 7.96532 37028 ft 491 kts 59°
2026-05-04 19:52 54.47218 8.06743 37025 ft 491 kts 59°
2026-05-04 19:53 54.50571 8.16973 37019 ft 491 kts 60°
2026-05-04 19:53 54.53921 8.27233 37013 ft 491 kts 60°
2026-05-04 19:54 54.57264 8.37518 37012 ft 492 kts 60°
2026-05-04 19:54 54.60597 8.47815 37017 ft 492 kts 60°
2026-05-04 19:55 54.63925 8.58141 37010 ft 492 kts 60°
2026-05-04 19:55 54.67221 8.68412 37010 ft 492 kts 60°
2026-05-04 19:56 54.70530 8.78764 37012 ft 492 kts 60°
2026-05-04 19:56 54.73825 8.89121 37006 ft 492 kts 60°
2026-05-04 19:57 54.77111 8.99492 37079 ft 490 kts 60°
2026-05-04 19:57 54.78751 9.04687 36829 ft 490 kts 60°
2026-05-04 19:57 54.80392 9.09893 36443 ft 491 kts 60°
2026-05-04 19:57 54.82024 9.15085 36073 ft 492 kts 60°
2026-05-04 19:58 54.83660 9.20296 35682 ft 492 kts 60°
2026-05-04 19:58 54.85296 9.25524 35312 ft 492 kts 60°
2026-05-04 19:58 54.86931 9.30756 34946 ft 492 kts 60°
2026-05-04 19:58 54.88560 9.35984 34585 ft 492 kts 60°
2026-05-04 19:59 54.90192 9.41230 34146 ft 493 kts 60°
2026-05-04 19:59 54.91797 9.46401 33636 ft 492 kts 60°
2026-05-04 19:59 54.93420 9.51645 33081 ft 494 kts 60°
2026-05-04 19:59 54.95079 9.56901 32547 ft 496 kts 57°
2026-05-04 20:00 54.97071 9.61831 32027 ft 497 kts 48°
2026-05-04 20:00 54.99380 9.66343 31520 ft 499 kts 44°
2026-05-04 20:00 55.01770 9.70753 31016 ft 502 kts 44°
2026-05-04 20:00 55.04151 9.75129 30529 ft 505 kts 44°
2026-05-04 20:01 55.06578 9.79599 30037 ft 507 kts 44°
2026-05-04 20:01 55.08999 9.84066 29469 ft 505 kts 44°
2026-05-04 20:01 55.11404 9.88501 29066 ft 499 kts 44°
2026-05-04 20:02 55.16157 9.97264 28989 ft 494 kts 44°
2026-05-04 20:02 55.20875 10.05965 28780 ft 491 kts 44°
2026-05-04 20:02 55.23187 10.10226 28200 ft 489 kts 44°
2026-05-04 20:03 55.25526 10.14537 27527 ft 485 kts 44°
2026-05-04 20:03 55.27840 10.18803 26876 ft 481 kts 44°
2026-05-04 20:03 55.30138 10.23036 26249 ft 476 kts 44°
2026-05-04 20:03 55.32343 10.27340 25614 ft 473 kts 50°
2026-05-04 20:04 55.34170 10.32143 25002 ft 471 kts 60°
2026-05-04 20:04 55.35432 10.37424 24404 ft 468 kts 73°
2026-05-04 20:04 55.36088 10.43006 23824 ft 464 kts 81°
2026-05-04 20:04 55.36527 10.48600 23181 ft 459 kts 83°
2026-05-04 20:05 55.36917 10.54155 22495 ft 455 kts 83°
2026-05-04 20:05 55.37289 10.59599 21870 ft 450 kts 83°
2026-05-04 20:05 55.37657 10.65028 21338 ft 443 kts 83°
2026-05-04 20:05 55.38018 10.70363 20820 ft 436 kts 83°
2026-05-04 20:06 55.38371 10.75621 20310 ft 429 kts 83°
2026-05-04 20:06 55.38718 10.80798 19808 ft 423 kts 83°
2026-05-04 20:06 55.39057 10.85896 19317 ft 417 kts 83°
2026-05-04 20:06 55.39390 10.90931 18828 ft 411 kts 83°
2026-05-04 20:07 55.39717 10.95894 18349 ft 406 kts 83°
2026-05-04 20:07 55.40038 11.00814 17820 ft 401 kts 83°
2026-05-04 20:07 55.40354 11.05663 17278 ft 397 kts 83°
2026-05-04 20:07 55.40664 11.10466 16755 ft 392 kts 83°
2026-05-04 20:08 55.40964 11.15143 16248 ft 388 kts 83°
2026-05-04 20:08 55.41264 11.19844 15731 ft 384 kts 83°
2026-05-04 20:08 55.41560 11.24499 15234 ft 380 kts 84°
2026-05-04 20:08 55.41850 11.29102 14736 ft 377 kts 84°
2026-05-04 20:09 55.42135 11.33664 14255 ft 373 kts 84°
2026-05-04 20:09 55.42418 11.38197 13774 ft 370 kts 84°
2026-05-04 20:09 55.42695 11.42681 13238 ft 367 kts 84°
2026-05-04 20:09 55.42968 11.47126 12713 ft 364 kts 84°
2026-05-04 20:10 55.43238 11.51547 12181 ft 361 kts 84°
2026-05-04 20:10 55.43561 11.55910 11676 ft 357 kts 77°
2026-05-04 20:10 55.44319 11.60034 11176 ft 353 kts 66°
2026-05-04 20:10 55.45348 11.63931 10688 ft 349 kts 62°
2026-05-04 20:11 55.46445 11.67736 10199 ft 346 kts 61°
2026-05-04 20:11 55.47539 11.71438 9711 ft 342 kts 60°
2026-05-04 20:11 55.48644 11.75145 9179 ft 340 kts 60°
2026-05-04 20:11 55.49750 11.78845 8650 ft 339 kts 60°
2026-05-04 20:12 55.50850 11.82527 8176 ft 336 kts 60°
2026-05-04 20:12 55.51923 11.86122 7984 ft 333 kts 60°
2026-05-04 20:12 55.53008 11.89759 7965 ft 333 kts 60°
2026-05-04 20:12 55.54088 11.93383 7966 ft 333 kts 60°
2026-05-04 20:13 55.55153 11.96964 7965 ft 333 kts 60°
2026-05-04 20:13 55.56231 12.00591 7966 ft 333 kts 60°
2026-05-04 20:13 55.57313 12.04241 7968 ft 333 kts 60°
2026-05-04 20:13 55.58377 12.07834 7868 ft 333 kts 60°
2026-05-04 20:14 55.59450 12.11461 7447 ft 328 kts 60°
2026-05-04 20:14 55.60488 12.14983 7236 ft 315 kts 61°
2026-05-04 20:14 55.61483 12.18361 7050 ft 303 kts 60°
2026-05-04 20:14 55.62433 12.21592 6780 ft 295 kts 60°
2026-05-04 20:15 55.63365 12.24763 6612 ft 284 kts 60°
2026-05-04 20:15 55.64259 12.27810 6432 ft 275 kts 60°
2026-05-04 20:15 55.65132 12.30786 6109 ft 271 kts 60°
2026-05-04 20:15 55.65998 12.33740 5789 ft 268 kts 60°
2026-05-04 20:16 55.66846 12.36637 5449 ft 266 kts 60°
2026-05-04 20:16 55.67697 12.39549 5113 ft 264 kts 60°
2026-05-04 20:16 55.68545 12.42441 4761 ft 263 kts 60°
2026-05-04 20:16 55.69389 12.45318 4440 ft 260 kts 60°
2026-05-04 20:17 55.70210 12.48125 4130 ft 257 kts 61°
2026-05-04 20:17 55.71027 12.50919 4002 ft 254 kts 60°
2026-05-04 20:17 55.71843 12.53716 3991 ft 255 kts 61°
2026-05-04 20:17 55.72660 12.56512 3993 ft 255 kts 60°
2026-05-04 20:18 55.73468 12.59288 3991 ft 256 kts 61°
2026-05-04 20:18 55.74285 12.62092 3992 ft 256 kts 61°
2026-05-04 20:18 55.75106 12.64916 3989 ft 256 kts 61°
2026-05-04 20:18 55.75922 12.67731 3988 ft 256 kts 61°
2026-05-04 20:19 55.76730 12.70516 3988 ft 256 kts 61°
2026-05-04 20:19 55.77310 12.73507 3967 ft 257 kts 84°
2026-05-04 20:19 55.77284 12.75612 3760 ft 258 kts 98°
2026-05-04 20:19 55.76789 12.79638 3587 ft 242 kts 104°
2026-05-04 20:20 55.76212 12.82335 3476 ft 227 kts 126°
2026-05-04 20:20 55.75487 12.83608 3349 ft 216 kts 151°
2026-05-04 20:20 55.74115 12.84076 3144 ft 195 kts 195°
2026-05-04 20:20 55.72965 12.83008 2828 ft 187 kts 224°
2026-05-04 20:21 55.72028 12.81435 2544 ft 184 kts 226°
2026-05-04 20:21 55.71075 12.79948 2302 ft 181 kts 224°
2026-05-04 20:21 55.69250 12.77146 1844 ft 163 kts 225°
2026-05-04 20:22 55.68409 12.75838 1618 ft 160 kts 225°
2026-05-04 20:22 55.68085 12.75333 1523 ft 160 kts 225°
2026-05-04 20:22 55.67472 12.74383 1362 ft 155 kts 225°
2026-05-04 20:22 55.66694 12.73183 1117 ft 142 kts 225°
2026-05-04 20:23 55.65965 12.72058 926 ft 138 kts 224°
2026-05-04 20:23 55.65252 12.70922 742 ft 138 kts 224°
2026-05-04 20:23 55.64517 12.69813 583 ft 139 kts 223°
2026-05-04 20:23 55.63795 12.68702 377 ft 139 kts 224°
2026-05-04 20:24 55.63067 12.67568 181 ft 139 kts 223°
2026-05-04 20:24 55.62342 12.66444 38 ft 138 kts 223°
2026-05-04 20:24 55.61681 12.65409 21 ft 106 kts 221°
2026-05-04 20:24 55.61286 12.64744 27 ft 52 kts 243°
2026-05-04 20:25 55.61201 12.64346 22 ft 22 kts 251°
2026-05-04 20:25 55.61192 12.64164 19 ft 12 kts 300°
2026-05-04 20:25 55.61214 12.64126 20 ft 0 kts 334°
2026-05-04 20:27 55.61255 12.64110 21 ft 15 kts
2026-05-04 20:27 55.61364 12.64210 23 ft 19 kts 33°
2026-05-04 20:27 55.61469 12.64330 30 ft 17 kts 33°
2026-05-04 20:27 55.61569 12.64444 27 ft 18 kts 33°
2026-05-04 20:28 55.61702 12.64602 24 ft 27 kts 33°
2026-05-04 20:28 55.61865 12.64786 22 ft 29 kts 32°
2026-05-04 20:28 55.62037 12.64979 25 ft 28 kts 32°
2026-05-04 20:28 55.62118 12.65077 28 ft 0 kts 33°
2026-05-04 20:30 55.62120 12.65079 27 ft 3 kts 33°
2026-05-04 20:30 55.62185 12.65150 27 ft 16 kts 27°
2026-05-04 20:31 55.62302 12.65196 24 ft 19 kts 359°
2026-05-04 20:31 55.62420 12.65231 23 ft 15 kts 49°
2026-05-04 20:31 55.62456 12.65365 22 ft 8 kts 34°
2026-05-04 20:31 55.62512 12.65399 23 ft 8 kts 11°
2026-05-04 20:32 55.62556 12.65430 22 ft 6 kts 62°
2026-05-04 20:32 55.62557 12.65443 23 ft 0 kts 89°
2026-05-04 20:32 55.71605 12.80759 2437 ft 183 kts 225°